Time,TemperatureF,DewpointF,PressureIn,WindDirection,WindDirectionDegrees,WindSpeedMPH,WindSpeedGustMPH,Humidity,HourlyPrecipIn,Conditions,Clouds,dailyrainin,SolarRadiationWatts/m^2,SoftwareType,DateUTC
2013-06-15 00:23:00,49.0,26.0,-100.00,ESE,107,3.0,5.0,41,0.00,,,-99.99,1.000000,,2013-06-15 07:23:00,
2013-06-15 00:33:00,49.0,26.0,-100.00,ESE,107,3.0,5.0,41,0.00,,,-99.99,1.000000,,2013-06-15 07:33:00,
2013-06-15 00:43:00,49.0,26.0,-100.00,ESE,107,3.0,5.0,41,0.00,,,-99.99,1.000000,,2013-06-15 07:43:00,
2013-06-15 00:53:00,49.0,26.0,-100.00,ESE,107,3.0,5.0,41,0.00,,,-99.99,1.000000,,2013-06-15 07:53:00,
2013-06-15 01:22:00,46.0,29.0,-100.00,ENE,65,5.0,7.0,52,0.00,,,0.00,1.000000,,2013-06-15 08:22:00,
2013-06-15 01:33:00,46.0,29.0,-100.00,ENE,65,5.0,7.0,52,0.00,,,0.00,1.000000,,2013-06-15 08:33:00,
2013-06-15 01:42:00,46.0,29.0,-100.00,ENE,65,5.0,7.0,52,0.00,,,0.00,1.000000,,2013-06-15 08:42:00,
2013-06-15 01:53:00,46.0,29.0,-100.00,ENE,65,5.0,7.0,52,0.00,,,0.00,1.000000,,2013-06-15 08:53:00,
2013-06-15 02:33:00,43.0,27.0,-100.00,ENE,68,6.0,7.0,53,0.00,,,0.00,1.000000,,2013-06-15 09:33:00,
2013-06-15 02:43:00,43.0,27.0,-100.00,ENE,68,6.0,7.0,53,0.00,,,0.00,1.000000,,2013-06-15 09:43:00,
2013-06-15 02:52:00,43.0,27.0,-100.00,ENE,68,6.0,7.0,53,0.00,,,0.00,1.000000,,2013-06-15 09:52:00,
2013-06-15 03:33:00,41.0,26.0,-100.00,ENE,63,6.0,10.0,55,0.00,,,0.00,1.000000,,2013-06-15 10:33:00,
2013-06-15 03:43:00,41.0,26.0,-100.00,ENE,63,6.0,10.0,55,0.00,,,0.00,1.000000,,2013-06-15 10:43:00,
2013-06-15 03:53:00,41.0,26.0,-100.00,ENE,63,6.0,10.0,55,0.00,,,0.00,1.000000,,2013-06-15 10:53:00,
2013-06-15 04:22:00,40.0,27.0,-100.00,ENE,74,4.0,8.0,59,0.00,,,0.00,1.000000,,2013-06-15 11:22:00,
2013-06-15 04:33:00,40.0,27.0,-100.00,ENE,74,4.0,8.0,59,0.00,,,0.00,1.000000,,2013-06-15 11:33:00,
2013-06-15 04:43:00,40.0,27.0,-100.00,ENE,74,4.0,8.0,59,0.00,,,0.00,1.000000,,2013-06-15 11:43:00,
2013-06-15 04:53:00,40.0,27.0,-100.00,ENE,74,4.0,8.0,59,0.00,,,0.00,1.000000,,2013-06-15 11:53:00,
2013-06-15 05:22:00,40.0,29.0,-100.00,ENE,64,6.0,8.0,64,0.00,,,0.00,1.000000,,2013-06-15 12:22:00,
2013-06-15 05:33:00,40.0,29.0,-100.00,ENE,64,6.0,8.0,64,0.00,,,0.00,1.000000,,2013-06-15 12:33:00,
2013-06-15 05:43:00,40.0,29.0,-100.00,ENE,64,6.0,8.0,64,0.00,,,0.00,1.000000,,2013-06-15 12:43:00,
2013-06-15 05:52:00,40.0,29.0,-100.00,ENE,64,6.0,8.0,64,0.00,,,0.00,1.000000,,2013-06-15 12:52:00,
2013-06-15 06:22:00,35.0,28.0,-100.00,ENE,63,7.0,11.0,74,0.00,,,0.00,6.000000,,2013-06-15 13:22:00,
2013-06-15 06:32:00,35.0,28.0,-100.00,ENE,63,7.0,11.0,74,0.00,,,0.00,6.000000,,2013-06-15 13:32:00,
2013-06-15 06:43:00,35.0,28.0,-100.00,ENE,63,7.0,11.0,74,0.00,,,0.00,6.000000,,2013-06-15 13:43:00,
2013-06-15 06:53:00,35.0,28.0,-100.00,ENE,63,7.0,11.0,74,0.00,,,0.00,6.000000,,2013-06-15 13:53:00,
2013-06-15 07:22:00,42.0,30.0,-100.00,ENE,74,5.0,13.0,62,0.00,,,0.00,114.000000,,2013-06-15 14:22:00,
2013-06-15 07:34:00,42.0,30.0,-100.00,ENE,74,5.0,13.0,62,0.00,,,0.00,114.000000,,2013-06-15 14:34:00,
2013-06-15 07:43:00,42.0,30.0,-100.00,ENE,74,5.0,13.0,62,0.00,,,0.00,114.000000,,2013-06-15 14:43:00,
2013-06-15 07:53:00,42.0,30.0,-100.00,ENE,74,5.0,13.0,62,0.00,,,0.00,114.000000,,2013-06-15 14:53:00,
2013-06-15 08:33:00,52.0,32.0,-100.00,NE,51,7.0,11.0,46,0.00,,,0.00,295.000000,,2013-06-15 15:33:00,
2013-06-15 08:43:00,52.0,32.0,-100.00,NE,51,7.0,11.0,46,0.00,,,0.00,295.000000,,2013-06-15 15:43:00,
2013-06-15 08:53:00,52.0,32.0,-100.00,NE,51,7.0,11.0,46,0.00,,,0.00,295.000000,,2013-06-15 15:53:00,
2013-06-15 09:22:00,58.0,32.0,-100.00,NE,45,7.0,12.0,37,0.00,,,0.00,490.000000,,2013-06-15 16:22:00,
2013-06-15 09:33:00,58.0,32.0,-100.00,NE,45,7.0,12.0,37,0.00,,,0.00,490.000000,,2013-06-15 16:33:00,
2013-06-15 09:43:00,58.0,32.0,-100.00,NE,45,7.0,12.0,37,0.00,,,0.00,490.000000,,2013-06-15 16:43:00,
2013-06-15 09:53:00,58.0,32.0,-100.00,NE,45,7.0,12.0,37,0.00,,,0.00,490.000000,,2013-06-15 16:53:00,
2013-06-15 10:32:00,65.0,34.0,-100.00,West,267,3.0,9.0,31,0.00,,,0.00,674.000000,,2013-06-15 17:32:00,
2013-06-15 10:43:00,65.0,34.0,-100.00,West,267,3.0,9.0,31,0.00,,,0.00,674.000000,,2013-06-15 17:43:00,
2013-06-15 10:52:00,65.0,34.0,-100.00,West,267,3.0,9.0,31,0.00,,,0.00,674.000000,,2013-06-15 17:52:00,
2013-06-15 11:22:00,68.0,36.0,-100.00,WSW,245,5.0,9.0,31,0.00,,,0.00,834.000000,,2013-06-15 18:22:00,
2013-06-15 11:32:00,68.0,36.0,-100.00,WSW,245,5.0,9.0,31,0.00,,,0.00,834.000000,,2013-06-15 18:32:00,
2013-06-15 11:43:00,68.0,36.0,-100.00,WSW,245,5.0,9.0,31,0.00,,,0.00,834.000000,,2013-06-15 18:43:00,
2013-06-15 11:53:00,68.0,36.0,-100.00,WSW,245,5.0,9.0,31,0.00,,,0.00,834.000000,,2013-06-15 18:53:00,
2013-06-15 12:22:00,72.0,33.0,-100.00,SSW,207,6.0,10.0,24,0.00,,,0.00,931.000000,,2013-06-15 19:22:00,
2013-06-15 12:33:00,72.0,33.0,-100.00,SSW,207,6.0,10.0,24,0.00,,,0.00,931.000000,,2013-06-15 19:33:00,
2013-06-15 12:43:00,72.0,33.0,-100.00,SSW,207,6.0,10.0,24,0.00,,,0.00,931.000000,,2013-06-15 19:43:00,
2013-06-15 12:52:00,72.0,33.0,-100.00,SSW,207,6.0,10.0,24,0.00,,,0.00,931.000000,,2013-06-15 19:52:00,
2013-06-15 13:22:00,75.0,30.0,-100.00,SW,230,7.0,13.0,19,0.00,,,0.00,1015.000000,,2013-06-15 20:22:00,
2013-06-15 13:33:00,75.0,30.0,-100.00,SW,230,7.0,13.0,19,0.00,,,0.00,1015.000000,,2013-06-15 20:33:00,
2013-06-15 13:43:00,75.0,30.0,-100.00,SW,230,7.0,13.0,19,0.00,,,0.00,1015.000000,,2013-06-15 20:43:00,
2013-06-15 13:52:00,75.0,30.0,-100.00,SW,230,7.0,13.0,19,0.00,,,0.00,1015.000000,,2013-06-15 20:52:00,
2013-06-15 14:22:00,77.0,29.0,-100.00,SW,219,7.0,14.0,17,0.00,,,0.00,1031.000000,,2013-06-15 21:22:00,
2013-06-15 14:33:00,77.0,29.0,-100.00,SW,219,7.0,14.0,17,0.00,,,0.00,1031.000000,,2013-06-15 21:33:00,
2013-06-15 14:42:00,77.0,29.0,-100.00,SW,219,7.0,14.0,17,0.00,,,0.00,1031.000000,,2013-06-15 21:42:00,
2013-06-15 14:52:00,77.0,29.0,-100.00,SW,219,7.0,14.0,17,0.00,,,0.00,1031.000000,,2013-06-15 21:52:00,
2013-06-15 15:22:00,78.0,30.0,-100.00,South,171,7.0,15.0,17,0.00,,,-99.99,922.000000,,2013-06-15 22:22:00,
2013-06-15 15:32:00,78.0,30.0,-100.00,South,171,7.0,15.0,17,0.00,,,-99.99,922.000000,,2013-06-15 22:32:00,
2013-06-15 15:42:00,78.0,30.0,-100.00,South,171,7.0,15.0,17,0.00,,,-99.99,922.000000,,2013-06-15 22:42:00,
2013-06-15 15:53:00,78.0,30.0,-100.00,South,171,7.0,15.0,17,0.00,,,-99.99,922.000000,,2013-06-15 22:53:00,
2013-06-15 16:22:00,78.0,34.0,-100.00,West,270,7.0,20.0,20,0.00,,,0.00,883.000000,,2013-06-15 23:22:00,
2013-06-15 16:33:00,78.0,34.0,-100.00,West,270,7.0,20.0,20,0.00,,,0.00,883.000000,,2013-06-15 23:33:00,
2013-06-15 16:42:00,78.0,34.0,-100.00,West,270,7.0,20.0,20,0.00,,,0.00,883.000000,,2013-06-15 23:42:00,
2013-06-15 16:52:00,78.0,34.0,-100.00,West,270,7.0,20.0,20,0.00,,,0.00,883.000000,,2013-06-15 23:52:00,
2013-06-15 17:22:00,76.0,37.0,-100.00,WNW,288,9.0,18.0,24,0.00,,,0.00,793.000000,,2013-06-16 00:22:00,
2013-06-15 17:33:00,76.0,37.0,-100.00,WNW,288,9.0,18.0,24,0.00,,,0.00,793.000000,,2013-06-16 00:33:00,
2013-06-15 17:43:00,76.0,37.0,-100.00,WNW,288,9.0,18.0,24,0.00,,,0.00,793.000000,,2013-06-16 00:43:00,
2013-06-15 17:52:00,76.0,37.0,-100.00,WNW,288,9.0,18.0,24,0.00,,,0.00,793.000000,,2013-06-16 00:52:00,
2013-06-15 18:33:00,75.0,35.0,-100.00,West,268,12.0,21.0,23,0.00,,,0.00,605.000000,,2013-06-16 01:33:00,
2013-06-15 18:42:00,75.0,35.0,-100.00,West,268,12.0,21.0,23,0.00,,,0.00,605.000000,,2013-06-16 01:42:00,
2013-06-15 18:53:00,75.0,35.0,-100.00,West,268,12.0,21.0,23,0.00,,,0.00,605.000000,,2013-06-16 01:53:00,
2013-06-15 19:22:00,73.0,41.0,-100.00,West,277,11.0,20.0,32,0.00,,,0.00,420.000000,,2013-06-16 02:22:00,
2013-06-15 19:33:00,73.0,41.0,-100.00,West,277,11.0,20.0,32,0.00,,,0.00,420.000000,,2013-06-16 02:33:00,
2013-06-15 19:43:00,73.0,41.0,-100.00,West,277,11.0,20.0,32,0.00,,,0.00,420.000000,,2013-06-16 02:43:00,
2013-06-15 19:53:00,73.0,41.0,-100.00,West,277,11.0,20.0,32,0.00,,,0.00,420.000000,,2013-06-16 02:53:00,
2013-06-15 20:22:00,65.0,43.0,-100.00,West,271,8.0,17.0,45,0.00,,,0.00,126.000000,,2013-06-16 03:22:00,
2013-06-15 20:33:00,65.0,43.0,-100.00,West,271,8.0,17.0,45,0.00,,,0.00,126.000000,,2013-06-16 03:33:00,
2013-06-15 20:43:00,65.0,43.0,-100.00,West,271,8.0,17.0,45,0.00,,,0.00,126.000000,,2013-06-16 03:43:00,
2013-06-15 20:53:00,65.0,43.0,-100.00,West,271,8.0,17.0,45,0.00,,,0.00,126.000000,,2013-06-16 03:53:00,
2013-06-15 21:23:00,61.0,43.0,-100.00,NW,305,2.0,10.0,51,0.00,,,0.00,24.000000,,2013-06-16 04:23:00,
2013-06-15 21:33:00,61.0,43.0,-100.00,NW,305,2.0,10.0,51,0.00,,,0.00,24.000000,,2013-06-16 04:33:00,
2013-06-15 21:42:00,61.0,43.0,-100.00,NW,305,2.0,10.0,51,0.00,,,0.00,24.000000,,2013-06-16 04:42:00,
2013-06-15 21:53:00,61.0,43.0,-100.00,NW,305,2.0,10.0,51,0.00,,,0.00,24.000000,,2013-06-16 04:53:00,
2013-06-15 22:22:00,59.0,41.0,-100.00,East,81,2.0,6.0,52,0.00,,,0.00,1.000000,,2013-06-16 05:22:00,
2013-06-15 22:33:00,59.0,41.0,-100.00,East,81,2.0,6.0,52,0.00,,,0.00,1.000000,,2013-06-16 05:33:00,
2013-06-15 22:43:00,59.0,41.0,-100.00,East,81,2.0,6.0,52,0.00,,,0.00,1.000000,,2013-06-16 05:43:00,
2013-06-15 22:52:00,59.0,41.0,-100.00,East,81,2.0,6.0,52,0.00,,,0.00,1.000000,,2013-06-16 05:52:00,
2013-06-15 23:22:00,58.0,41.0,-100.00,NE,51,2.0,5.0,53,0.00,,,0.00,1.000000,,2013-06-16 06:22:00,
2013-06-15 23:33:00,58.0,41.0,-100.00,NE,51,2.0,5.0,53,0.00,,,0.00,1.000000,,2013-06-16 06:33:00,
2013-06-15 23:43:00,58.0,41.0,-100.00,NE,51,2.0,5.0,53,0.00,,,0.00,1.000000,,2013-06-16 06:43:00,
2013-06-15 23:52:00,58.0,41.0,-100.00,NE,51,2.0,5.0,53,0.00,,,0.00,1.000000,,2013-06-16 06:52:00,